Wind_Speed
9 10 5 3 3 2 1 3 3 4 6 17 25 9 13 8 4 4 25 23 24 23 21 18 17 16 15 14 13 12 13 13 14 15 15 15 15 16 17 17 18 18 18 19 21 23 25 25 25
14 10 4 1 3 1 1 2 7 7 18 34 17 19 15 4 12 27 28 24 24 23 21 18 17 17 16 16 15 14 14 14 14 15 16 16 16 15 17 17 19 17 17 19 23 23 24 22 21
11 5 0 1 2 3 3 5 2 20 26 19 12 13 9 12 29 30 30 28 26 23 21 19 17 18 15 15 15 15 15 14 14 15 15 16 17 17 16 17 18 19 17 18 22 23 22 20 19
8 3 1 2 3 4 4 3 2 19 22 19 27 13 18 18 25 32 30 28 26 23 20 19 18 16 15 15 15 15 16 17 16 16 16 16 16 17 17 18 18 17 17 19 20 22 21 17 18
5 3 2 2 2 3 2 6 15 4 11 21 33 13 17 21 30 31 30 26 25 24 21 18 17 16 15 15 15 15 16 15 15 15 15 15 17 17 16 17 17 17 16 19 21 21 19 16 16
2 1 3 4 3 2 5 5 18 16 25 27 34 25 12 32 33 31 28 25 21 23 21 19 16 15 14 14 15 15 15 15 14 14 15 16 17 16 17 16 16 14 16 19 20 18 18 18 18
3 0 4 8 7 3 4 11 24 23 32 17 33 17 25 35 31 30 25 25 24 20 18 17 15 15 14 15 15 14 15 15 16 15 15 16 17 18 20 20 18 18 20 20 20 20 19 17 15
4 1 1 2 10 3 8 6 27 26 19 34 44 12 24 36 34 28 23 22 21 19 15 14 14 14 15 16 16 16 17 17 16 17 17 17 18 19 21 21 21 21 21 21 22 21 18 18 14
3 1 2 6 8 6 9 9 24 25 36 29 7 34 41 40 35 29 26 22 20 16 16 15 15 15 16 18 19 20 21 21 19 19 19 19 20 20 21 22 23 24 24 23 23 21 17 15 14
3 1 4 2 15 11 13 12 14 19 26 25 34 33 45 40 34 31 28 25 22 21 16 16 14 16 19 21 22 22 21 18 20 22 22 20 19 21 20 20 20 20 22 23 18 16 14 10 8
6 4 6 8 17 17 12 12 10 20 7 34 42 43 45 38 34 29 25 24 21 20 20 19 19 19 20 24 23 20 20 19 19 21 22 22 20 21 20 18 18 19 17 14 15 11 8 10 7
4 6 7 9 21 18 15 12 8 15 17 35 47 46 45 39 36 31 30 24 24 20 21 21 20 22 22 18 19 19 19 19 19 17 19 20 19 19 15 13 12 10 12 14 10 12 9 10 11
2 8 10 16 17 20 16 9 8 20 28 37 42 42 42 37 36 33 29 26 24 25 25 22 19 19 17 18 19 19 21 18 17 15 16 17 17 16 12 10 9 12 12 12 11 10 11 11 8
13 12 13 15 19 15 14 9 7 10 28 33 43 40 36 34 35 37 31 31 24 23 24 22 18 17 19 18 18 18 14 14 13 11 12 8 12 11 12 7 7 8 10 12 9 10 11 9 7
14 7 7 12 14 7 20 5 9 19 25 30 36 39 35 34 33 35 33 32 25 24 22 20 18 13 12 13 13 15 16 13 10 12 11 10 8 7 9 13 11 9 10 12 12 9 8 7 6
5 4 9 9 12 13 5 2 5 15 17 21 27 31 32 30 30 32 34 30 25 26 26 24 20 16 15 19 15 15 17 12 12 9 10 10 8 8 12 11 6 6 7 12 11 10 9 9 9
2 4 4 9 21 10 3 8 18 20 16 19 22 27 21 37 38 33 35 29 31 29 23 19 21 19 19 18 13 13 15 10 10 12 10 11 11 13 13 10 9 8 8 9 9 6 8 3 4
3 2 4 8 11 4 4 5 15 26 22 25 26 26 22 33 38 33 35 33 30 24 17 16 25 22 22 16 17 14 16 11 9 11 9 10 9 13 10 13 8 10 9 10 6 6 3 3 2
2 5 10 4 12 7 3 8 7 22 21 21 24 25 24 36 38 38 38 31 30 26 18 23 21 24 23 17 18 16 15 13 11 11 6 9 11 10 9 10 7 8 7 9 7 6 3 5 2
3 5 2 15 12 8 10 3 1 11 24 26 29 23 29 27 40 42 41 37 31 26 21 23 16 26 22 17 18 15 15 14 10 6 6 6 9 9 10 9 10 8 9 9 9 3 3 5 3
5 6 6 6 9 8 11 10 8 5 9 21 22 19 28 37 42 42 39 36 30 26 23 21 20 22 20 17 14 15 11 13 12 11 10 10 8 7 11 13 10 7 10 10 6 4 6 4 2
5 12 8 17 7 5 11 5 4 7 11 16 20 18 22 25 39 42 40 37 33 27 24 23 23 20 21 23 18 13 16 17 14 12 9 11 8 5 8 13 13 11 11 10 8 5 5 1 2
11 12 10 17 5 6 10 3 4 7 8 12 17 19 23 21 23 31 41 37 34 29 26 24 28 23 20 23 20 15 12 18 14 10 11 11 11 9 9 9 13 9 12 13 9 7 4 3 1
14 4 2 7 5 1 8 5 4 11 18 12 16 22 26 25 25 23 29 38 36 31 27 24 28 26 22 23 23 17 13 15 14 14 15 13 10 12 13 8 11 10 10 15 13 11 8 4 3
5 6 1 2 2 6 7 8 8 17 17 23 29 35 30 31 34 26 23 35 38 35 30 26 26 26 25 28 24 19 17 15 14 10 16 13 12 12 13 11 8 8 13 12 14 12 11 8 7
6 8 6 5 3 2 6 6 2 7 14 17 22 28 25 40 36 29 21 25 34 36 31 29 25 24 27 33 28 24 22 20 15 14 14 14 10 11 10 8 6 8 11 12 14 12 12 12 11
7 3 9 6 2 4 3 4 4 8 4 9 12 15 19 26 36 31 25 22 21 30 36 31 25 22 28 31 29 28 23 23 19 14 14 11 10 7 14 12 14 10 10 14 11 11 10 12 12
8 6 2 3 6 4 3 5 4 3 6 6 6 10 6 17 21 27 31 22 20 18 31 34 27 22 26 27 31 29 25 23 21 18 16 13 11 11 9 8 11 9 13 11 11 9 11 11 9
1 3 4 4 5 6 4 1 3 9 10 9 10 8 4 6 15 24 36 28 24 19 28 29 28 27 24 25 27 29 27 23 20 21 21 17 15 15 15 14 11 11 9 9 9 10 12 10 9
5 8 7 5 5 3 4 2 5 8 13 16 10 7 3 2 9 16 26 27 20 19 25 19 24 24 25 25 25 24 24 22 22 22 25 22 18 17 15 13 10 13 13 11 10 9 10 13 10
Wind_Direction
142 140 133 69 53 29 335 137 273 251 130 157 158 139 175 107 153 170 147 154 160 152 148 139 136 134 129 125 119 118 119 121 119 119 121 119 115 113 115 113 107 108 112 107 112 113 109 107 103
143 137 125 68 96 283 292 200 152 106 110 123 145 118 105 113 117 134 143 155 155 149 144 141 137 132 125 123 118 117 118 116 121 120 119 119 117 114 115 113 112 110 110 110 117 119 113 109 107
157 141 166 120 60 204 149 191 212 133 129 129 115 82 88 116 131 138 144 153 151 145 143 140 139 137 127 123 118 116 116 115 116 120 120 119 118 116 116 118 118 109 105 113 122 123 118 114 108
162 158 194 160 166 223 230 156 196 108 104 88 109 77 94 135 136 143 145 151 148 143 144 141 140 134 129 124 122 120 121 118 114 119 117 119 122 122 121 120 116 108 104 112 119 128 124 119 107
177 105 192 134 133 253 220 163 150 114 73 110 113 117 113 144 136 138 147 149 148 145 145 140 137 135 130 128 126 123 122 119 117 117 122 125 122 121 120 117 113 107 104 118 122 136 125 107 112
253 181 176 129 178 181 281 158 160 107 117 111 108 119 116 141 142 146 142 147 147 145 144 141 138 135 132 128 125 125 123 120 123 121 123 125 125 122 121 118 115 111 107 117 125 129 117 111 109
252 303 319 110 174 148 165 125 125 118 125 127 129 113 139 145 149 147 143 151 149 147 145 143 138 135 132 129 128 127 124 121 124 127 130 129 128 123 117 113 111 112 114 119 125 130 122 113 112
212 46 221 123 163 108 145 117 129 135 116 130 129 142 151 153 160 148 150 153 147 147 145 140 138 136 133 131 130 129 124 121 124 128 129 125 127 123 118 112 105 103 107 112 116 124 127 117 103
154 309 191 153 154 142 215 129 118 130 129 137 145 148 148 154 156 151 143 144 149 139 140 131 137 136 135 134 130 127 119 116 113 122 125 125 125 122 122 113 106 104 110 116 117 121 125 119 113
130 287 226 223 159 180 172 136 132 141 145 126 126 145 153 156 157 153 146 145 145 138 142 136 135 132 135 133 128 123 120 120 109 116 119 125 125 126 124 119 111 112 111 113 118 123 130 132 119
151 217 220 246 159 165 148 118 130 142 160 144 146 152 157 156 160 156 159 156 143 136 128 128 123 127 134 133 126 117 117 116 118 117 120 127 130 132 133 131 111 117 112 113 109 113 106 102 103
124 284 238 190 157 155 151 118 113 194 174 150 152 158 159 164 165 164 163 164 156 145 140 128 121 125 134 140 128 124 123 119 117 117 123 129 132 138 137 133 111 105 120 121 101 98 113 115 102
183 190 228 142 151 146 136 111 120 124 150 148 151 156 163 163 165 170 168 163 155 149 144 138 129 126 133 143 132 127 125 124 124 123 125 128 134 137 136 132 128 98 93 131 112 107 101 100 88
163 140 144 159 135 137 124 127 111 140 148 153 163 167 173 171 163 171 178 165 168 158 147 148 139 135 134 139 141 143 143 134 141 142 138 146 154 134 133 161 158 119 109 120 129 125 121 109 107
175 145 145 172 151 131 115 94 143 160 156 154 169 176 179 175 173 175 172 167 168 162 155 168 157 152 171 158 150 139 140 152 151 162 153 147 145 142 146 131 129 123 119 124 137 152 140 139 154
121 95 157 201 166 163 101 117 96 167 167 176 171 183 180 175 174 177 170 169 167 160 154 157 159 167 167 160 171 159 161 157 163 162 140 140 132 127 163 161 132 123 103 130 135 156 135 145 164
248 172 163 175 193 149 184 156 219 206 194 187 186 181 177 169 177 177 174 175 170 162 163 165 168 170 167 163 171 175 180 178 180 178 170 154 161 150 154 148 140 133 127 150 142 138 152 135 174
215 166 152 191 181 151 106 181 170 196 197 193 184 192 162 159 168 175 176 173 168 163 165 168 170 169 164 162 167 176 181 176 153 158 167 188 178 160 167 164 157 136 137 153 164 160 140 120 148
285 319 286 33 120 65 19 96 198 184 200 217 187 190 175 165 166 173 173 167 167 168 159 159 173 187 183 174 164 177 174 190 179 183 171 175 194 182 171 175 163 148 175 156 165 148 176 136 120
284 272 36 83 100 86 32 341 276 230 207 201 188 191 183 161 156 167 171 168 170 172 173 175 176 176 188 189 174 167 186 189 180 173 181 168 188 200 187 195 175 181 191 173 159 138 131 102 71
261 232 241 130 100 43 84 314 269 225 181 204 202 198 182 174 171 170 169 173 177 179 185 188 190 193 197 194 191 186 189 186 190 188 173 170 195 227 193 184 185 190 193 197 173 131 156 137 94
281 246 244 143 150 179 161 218 266 197 200 188 180 174 169 176 174 177 179 180 188 194 198 199 200 203 198 197 188 208 205 217 200 203 190 193 194 202 214 199 203 201 198 181 180 177 147 179 135
239 262 247 177 132 132 205 133 267 147 212 202 206 159 175 170 169 179 188 191 193 197 201 207 207 202 203 204 196 205 218 211 211 200 199 197 187 204 225 239 220 209 204 201 197 188 162 197 145
250 256 129 115 110 10 200 146 204 194 202 174 203 194 180 179 175 176 191 196 196 197 203 206 209 207 203 206 199 202 213 203 214 225 221 205 204 210 221 230 200 216 209 202 207 214 195 211 206
179 92 310 59 121 212 134 173 233 204 183 192 188 200 189 184 181 187 175 198 197 198 204 206 208 211 205 201 204 205 214 216 226 230 214 208 230 216 227 223 206 196 204 206 212 222 221 218 227
203 156 154 172 184 225 49 208 309 197 193 188 196 197 197 184 193 192 176 179 198 204 209 211 212 211 207 202 208 210 217 224 227 233 212 237 217 214 207 215 234 220 207 205 215 231 231 228 234
253 132 189 138 89 98 163 330 317 35 53 128 144 169 192 200 205 209 205 173 182 202 211 214 216 215 210 206 207 212 221 225 219 219 214 213 216 250 225 249 253 245 216 217 222 225 222 230 239
169 180 126 345 141 233 247 148 232 117 49 101 89 103 169 214 222 209 206 211 202 197 215 218 224 223 212 211 210 212 218 220 218 216 218 215 224 242 239 256 222 235 208 214 225 215 222 221 232
347 122 77 134 131 172 164 247 287 133 103 90 71 80 91 230 230 220 208 220 235 216 205 218 223 227 217 214 211 214 217 222 223 224 222 219 231 239 247 249 249 226 219 203 214 224 229 229 225
168 176 141 126 248 111 102 108 102 110 118 105 91 84 82 148 230 233 214 227 209 209 200 205 216 225 220 218 213 214 212 220 226 227 219 226 230 237 246 243 239 236 234 226 218 226 239 242 251
Height
1527 1529 1530 1530 1535 1535 1536 1537 1527 1520 1518 1523 1528 1527 1528 1533 1540 1552 1549 1553 1556 1558 1561 1562 1564 1565 1566 1567 1568 1568 1568 1569 1569 1570 1571 1571 1571 1572 1574 1574 1575 1575 1575 1576 1577 1578 1578 1577 1577
1526 1528 1529 1529 1537 1545 1539 1528 1523 1518 1517 1522 1531 1532 1532 1540 1539 1543 1548 1555 1558 1560 1562 1563 1565 1566 1567 1568 1568 1569 1569 1570 1570 1571 1572 1573 1574 1576 1576 1577 1577 1578 1579 1579 1580 1580 1580 1580 1580
1527 1528 1530 1531 1534 1539 1535 1526 1523 1522 1520 1520 1528 1534 1536 1541 1543 1546 1550 1555 1559 1561 1564 1565 1566 1568 1568 1569 1570 1570 1571 1571 1572 1572 1573 1575 1576 1577 1577 1578 1579 1580 1581 1581 1581 1583 1582 1582 1582
1527 1529 1530 1532 1533 1530 1526 1523 1523 1521 1523 1520 1523 1535 1542 1546 1545 1548 1553 1557 1560 1563 1566 1567 1568 1569 1570 1571 1572 1573 1573 1574 1574 1574 1575 1576 1577 1578 1579 1580 1581 1581 1582 1583 1584 1585 1585 1585 1586
1527 1527 1530 1531 1533 1526 1524 1525 1522 1521 1521 1523 1523 1540 1543 1551 1551 1553 1556 1560 1562 1564 1566 1568 1570 1571 1572 1573 1574 1575 1575 1576 1576 1576 1577 1578 1580 1580 1581 1583 1584 1584 1584 1585 1586 1588 1588 1588 1588
1528 1527 1530 1531 1531 1527 1525 1521 1523 1524 1525 1529 1531 1538 1548 1552 1553 1555 1559 1562 1566 1566 1568 1569 1571 1572 1574 1575 1576 1576 1577 1577 1577 1579 1580 1580 1581 1582 1583 1585 1586 1586 1587 1587 1588 1590 1590 1591 1592
1529 1516 1524 1527 1529 1528 1525 1522 1518 1524 1526 1532 1534 1541 1553 1555 1556 1558 1561 1564 1567 1569 1570 1571 1572 1574 1575 1576 1577 1577 1578 1578 1579 1580 1581 1582 1583 1584 1586 1586 1587 1588 1589 1589 1590 1592 1593 1594 1595
1525 1525 1524 1522 1529 1528 1523 1522 1524 1524 1529 1533 1534 1545 1551 1555 1558 1561 1565 1567 1569 1571 1572 1573 1575 1576 1577 1577 1578 1578 1579 1580 1580 1581 1583 1585 1586 1586 1588 1589 1589 1590 1591 1592 1593 1594 1596 1596 1597
1523 1527 1530 1525 1527 1527 1524 1522 1527 1530 1528 1535 1537 1542 1548 1555 1560 1563 1567 1570 1571 1573 1574 1574 1576 1577 1577 1578 1578 1580 1581 1582 1582 1583 1584 1587 1588 1589 1591 1592 1592 1593 1594 1595 1596 1597 1597 1598 1599
1525 1527 1524 1517 1519 1522 1523 1524 1525 1532 1533 1538 1542 1550 1552 1556 1560 1562 1566 1569 1572 1573 1575 1576 1577 1578 1579 1580 1581 1583 1584 1584 1584 1586 1587 1589 1590 1592 1594 1595 1596 1597 1598 1599 1598 1599 1599 1600 1601
1527 1515 1520 1517 1517 1520 1523 1525 1528 1533 1536 1535 1539 1546 1551 1555 1560 1563 1565 1568 1571 1575 1576 1578 1579 1581 1582 1584 1585 1586 1587 1587 1588 1589 1590 1590 1592 1595 1596 1597 1598 1599 1600 1602 1602 1602 1602 1602 1603
1520 1516 1516 1514 1516 1520 1523 1526 1530 1533 1533 1537 1541 1547 1550 1554 1558 1562 1566 1569 1573 1576 1579 1580 1583 1584 1585 1587 1588 1589 1590 1591 1591 1592 1593 1593 1594 1596 1598 1599 1600 1601 1601 1602 1603 1604 1603 1603 1604
1514 1515 1512 1515 1516 1519 1523 1528 1529 1532 1538 1542 1546 1550 1552 1554 1558 1563 1566 1569 1573 1577 1579 1581 1584 1586 1588 1590 1591 1592 1593 1595 1596 1596 1597 1598 1598 1599 1600 1601 1601 1602 1602 1603 1604 1606 1606 1606 1606
1513 1514 1516 1518 1520 1524 1525 1532 1532 1537 1538 1543 1546 1550 1553 1555 1559 1563 1567 1571 1575 1578 1580 1583 1585 1588 1591 1592 1593 1595 1596 1597 1598 1598 1600 1601 1602 1602 1603 1603 1603 1604 1604 1605 1606 1607 1608 1608 1607
1503 1516 1520 1520 1521 1524 1525 1535 1536 1536 1539 1544 1548 1550 1554 1558 1560 1561 1566 1571 1575 1579 1581 1584 1586 1589 1592 1594 1596 1597 1598 1599 1600 1600 1601 1602 1603 1604 1605 1605 1605 1606 1606 1606 1608 1608 1609 1609 1610
1506 1510 1528 1521 1521 1526 1528 1546 1538 1539 1540 1542 1547 1550 1554 1559 1560 1565 1568 1570 1576 1578 1581 1584 1588 1590 1592 1594 1596 1598 1600 1601 1603 1603 1603 1604 1604 1605 1606 1606 1607 1607 1607 1608 1609 1610 1610 1611 1611
1505 1523 1519 1526 1519 1521 1528 1543 1536 1540 1542 1542 1544 1547 1552 1555 1559 1564 1569 1571 1574 1578 1581 1585 1589 1591 1593 1595 1596 1598 1601 1602 1604 1605 1605 1606 1607 1607 1608 1608 1608 1609 1609 1610 1610 1611 1612 1612 1612
1520 1517 1517 1519 1522 1524 1531 1532 1533 1536 1538 1541 1541 1544 1550 1554 1557 1562 1568 1572 1575 1578 1582 1584 1588 1592 1595 1597 1598 1600 1602 1603 1604 1605 1606 1607 1607 1609 1608 1609 1610 1610 1610 1612 1612 1612 1612 1612 1613
1511 1516 1514 1514 1519 1532 1538 1535 1539 1537 1541 1542 1541 1543 1549 1552 1555 1562 1567 1571 1575 1578 1581 1585 1589 1592 1595 1597 1599 1601 1602 1603 1604 1605 1606 1606 1607 1608 1609 1610 1611 1611 1612 1612 1613 1613 1613 1613 1613
1510 1514 1518 1522 1528 1531 1540 1544 1538 1540 1540 1537 1539 1543 1546 1552 1554 1560 1567 1570 1574 1577 1580 1585 1588 1591 1595 1598 1601 1602 1603 1603 1604 1605 1607 1607 1607 1608 1610 1610 1611 1612 1613 1614 1614 1614 1613 1613 1613
1510 1513 1513 1514 1533 1538 1544 1551 1538 1531 1538 1538 1539 1541 1545 1547 1552 1557 1562 1568 1571 1575 1578 1582 1587 1591 1594 1597 1600 1602 1603 1605 1605 1605 1606 1607 1608 1608 1609 1610 1611 1611 1612 1613 1614 1614 1614 1614 1614
1518 1496 1502 1518 1523 1547 1545 1560 1538 1531 1534 1536 1537 1540 1542 1547 1550 1554 1559 1564 1568 1572 1576 1580 1584 1589 1593 1596 1598 1600 1601 1603 1604 1605 1607 1608 1608 1608 1609 1610 1610 1612 1612 1613 1614 1615 1615 1615 1615
1502 1491 1496 1503 1520 1532 1541 1539 1535 1533 1533 1533 1533 1537 1540 1544 1551 1556 1556 1560 1565 1570 1573 1577 1582 1586 1591 1594 1598 1599 1600 1602 1604 1605 1607 1608 1608 1609 1608 1609 1610 1611 1612 1613 1614 1615 1615 1615 1616
1486 1491 1493 1504 1525 1545 1528 1538 1542 1531 1517 1523 1529 1534 1537 1542 1547 1554 1559 1562 1564 1568 1572 1576 1580 1584 1589 1593 1596 1598 1599 1601 1603 1605 1605 1606 1607 1608 1609 1609 1610 1610 1611 1612 1614 1614 1615 1616 1617
1489 1504 1533 1538 1546 1544 1513 1536 1519 1512 1512 1508 1507 1521 1531 1537 1542 1551 1555 1559 1564 1567 1570 1575 1578 1582 1586 1590 1594 1597 1599 1601 1602 1602 1604 1606 1606 1607 1608 1608 1609 1610 1611 1612 1613 1614 1615 1615 1616
1489 1495 1530 1540 1541 1520 1513 1534 1517 1504 1509 1512 1517 1521 1528 1533 1540 1544 1551 1555 1562 1566 1568 1572 1575 1579 1583 1587 1592 1595 1596 1599 1601 1602 1603 1604 1606 1607 1608 1608 1608 1609 1609 1610 1611 1612 1613 1614 1615
1484 1498 1488 1511 1500 1527 1528 1526 1512 1508 1511 1514 1521 1525 1530 1536 1541 1545 1548 1553 1560 1563 1567 1569 1573 1576 1579 1584 1589 1592 1594 1597 1600 1601 1602 1603 1605 1605 1606 1607 1607 1607 1608 1609 1610 1610 1611 1612 1613
1474 1474 1501 1512 1526 1532 1531 1531 1529 1518 1517 1520 1526 1529 1534 1536 1540 1544 1548 1551 1556 1561 1566 1570 1572 1573 1576 1580 1585 1589 1591 1594 1598 1599 1600 1601 1602 1603 1604 1605 1605 1605 1605 1607 1608 1608 1609 1610 1611
1478 1483 1491 1496 1511 1524 1535 1535 1519 1520 1521 1525 1529 1532 1534 1536 1538 1541 1545 1544 1554 1559 1562 1566 1572 1575 1577 1580 1583 1587 1589 1591 1593 1596 1598 1599 1601 1602 1602 1603 1603 1603 1604 1604 1605 1606 1607 1608 1609
1464 1475 1484 1512 1509 1514 1519 1534 1524 1524 1523 1525 1531 1533 1535 1536 1535 1537 1541 1546 1551 1555 1556 1562 1569 1576 1576 1579 1583 1585 1587 1589 1590 1591 1594 1596 1598 1599 1601 1602 1602 1603 1603 1604 1604 1605 1606 1606 1607